Time,TemperatureF,DewpointF,PressureIn,WindDirection,WindDirectionDegrees,WindSpeedMPH,WindSpeedGustMPH,Humidity,HourlyPrecipIn,Conditions,Clouds,dailyrainin,SoftwareType,DateUTC
2015-07-06 00:01:00,65.0,58.3,29.52,SE,135,0.0,0.0,79,0.00,,---,0.00,VWS V13.01,2015-07-06 07:01:00,
2015-07-06 00:06:00,64.0,57.4,29.52,East,90,0.0,1.0,79,0.00,,---,0.00,VWS V13.01,2015-07-06 07:06:00,
2015-07-06 00:11:00,64.0,57.4,29.53,NNW,337,0.0,0.0,79,0.00,,---,0.00,VWS V13.01,2015-07-06 07:11:00,
2015-07-06 00:16:00,64.0,57.4,29.53,ENE,67,0.0,0.0,79,0.00,,---,0.00,VWS V13.01,2015-07-06 07:16:00,
2015-07-06 00:21:00,64.0,57.4,29.53,ENE,67,0.0,0.0,79,0.00,,---,0.00,VWS V13.01,2015-07-06 07:21:00,
2015-07-06 00:26:00,64.0,57.4,29.53,NE,45,0.0,0.0,79,0.00,,---,0.00,VWS V13.01,2015-07-06 07:26:00,
2015-07-06 00:31:00,63.0,56.4,29.53,North,360,0.0,0.0,79,0.00,,---,0.00,VWS V13.01,2015-07-06 07:31:00,
2015-07-06 00:36:00,63.0,56.4,29.53,North,360,0.0,0.0,79,0.00,,---,0.00,VWS V13.01,2015-07-06 07:36:00,
2015-07-06 00:41:00,63.0,56.4,29.53,North,360,0.0,0.0,79,0.00,,---,0.00,VWS V13.01,2015-07-06 07:41:00,
2015-07-06 00:46:00,63.0,56.4,29.53,North,360,0.0,0.0,79,0.00,,---,0.00,VWS V13.01,2015-07-06 07:46:00,
2015-07-06 00:51:00,63.0,56.4,29.54,NNE,22,0.0,0.0,79,0.00,,---,0.00,VWS V13.01,2015-07-06 07:51:00,
2015-07-06 00:56:00,63.0,56.4,29.54,ENE,67,0.0,0.0,79,0.00,,---,0.00,VWS V13.01,2015-07-06 07:56:00,
2015-07-06 01:01:00,62.0,55.4,29.55,ESE,112,0.0,0.0,79,0.00,,---,0.00,VWS V13.01,2015-07-06 08:01:00,
2015-07-06 01:06:00,62.0,55.4,29.55,North,360,0.0,0.0,79,0.00,,---,0.00,VWS V13.01,2015-07-06 08:06:00,
2015-07-06 01:11:00,62.0,55.4,29.55,NE,45,0.0,0.0,79,0.00,,---,0.00,VWS V13.01,2015-07-06 08:11:00,
2015-07-06 01:16:00,62.0,55.1,29.55,NE,45,0.0,0.0,78,0.00,,---,0.00,VWS V13.01,2015-07-06 08:16:00,
2015-07-06 01:21:00,62.0,55.4,29.55,NE,45,0.0,0.0,79,0.00,,---,0.00,VWS V13.01,2015-07-06 08:21:00,
2015-07-06 01:26:00,61.0,54.1,29.55,North,360,0.0,0.0,78,0.00,,---,0.00,VWS V13.01,2015-07-06 08:26:00,
2015-07-06 01:31:00,61.0,54.1,29.55,North,360,0.0,0.0,78,0.00,,---,0.00,VWS V13.01,2015-07-06 08:31:00,
2015-07-06 01:36:00,61.0,54.1,29.55,East,90,0.0,0.0,78,0.00,,---,0.00,VWS V13.01,2015-07-06 08:36:00,
2015-07-06 01:41:00,61.0,54.1,29.57,East,90,0.0,0.0,78,0.00,,---,0.00,VWS V13.01,2015-07-06 08:41:00,
2015-07-06 01:46:00,61.0,54.1,29.57,ESE,112,0.0,0.0,78,0.00,,---,0.00,VWS V13.01,2015-07-06 08:46:00,
2015-07-06 01:51:00,61.0,54.1,29.57,NE,45,0.0,0.0,78,0.00,,---,0.00,VWS V13.01,2015-07-06 08:51:00,
2015-07-06 01:56:00,61.0,54.1,29.57,SSE,157,0.0,0.0,78,0.00,,---,0.00,VWS V13.01,2015-07-06 08:56:00,
2015-07-06 02:01:00,60.0,53.1,29.56,NNE,22,0.0,0.0,78,0.00,,---,0.00,VWS V13.01,2015-07-06 09:01:00,
2015-07-06 02:06:00,60.0,53.1,29.56,North,360,0.0,0.0,78,0.00,,---,0.00,VWS V13.01,2015-07-06 09:06:00,
2015-07-06 02:11:00,60.0,53.1,29.56,East,90,0.0,0.0,78,0.00,,---,0.00,VWS V13.01,2015-07-06 09:11:00,
2015-07-06 02:16:00,60.0,53.1,29.56,SSE,157,0.0,0.0,78,0.00,,---,0.00,VWS V13.01,2015-07-06 09:16:00,
2015-07-06 02:21:00,60.0,53.1,29.57,SSE,157,0.0,0.0,78,0.00,,---,0.00,VWS V13.01,2015-07-06 09:21:00,
2015-07-06 02:26:00,60.0,53.1,29.57,SSE,157,0.0,0.0,78,0.00,,---,0.00,VWS V13.01,2015-07-06 09:26:00,
2015-07-06 02:31:00,60.0,53.1,29.57,North,360,0.0,0.0,78,0.00,,---,0.00,VWS V13.01,2015-07-06 09:31:00,
2015-07-06 02:36:00,60.0,53.1,29.57,North,360,0.0,0.0,78,0.00,,---,0.00,VWS V13.01,2015-07-06 09:36:00,
2015-07-06 02:41:00,60.0,53.1,29.57,North,360,0.0,0.0,78,0.00,,---,0.00,VWS V13.01,2015-07-06 09:41:00,
2015-07-06 02:46:00,60.0,53.1,29.57,NE,45,0.0,0.0,78,0.00,,---,0.00,VWS V13.01,2015-07-06 09:46:00,
2015-07-06 02:51:00,60.0,53.1,29.57,NE,45,0.0,0.0,78,0.00,,---,0.00,VWS V13.01,2015-07-06 09:51:00,
2015-07-06 02:56:00,60.0,53.1,29.57,East,90,0.0,0.0,78,0.00,,---,0.00,VWS V13.01,2015-07-06 09:56:00,
2015-07-06 03:01:00,60.0,53.1,29.57,NNE,22,0.0,0.0,78,0.00,,---,0.00,VWS V13.01,2015-07-06 10:01:00,
2015-07-06 03:06:00,60.0,53.1,29.57,NNE,22,0.0,0.0,78,0.00,,---,0.00,VWS V13.01,2015-07-06 10:06:00,
2015-07-06 03:11:00,60.0,53.1,29.57,NE,45,0.0,0.0,78,0.00,,---,0.00,VWS V13.01,2015-07-06 10:11:00,
2015-07-06 03:16:00,59.0,52.2,29.57,NE,45,0.0,0.0,78,0.00,,---,0.00,VWS V13.01,2015-07-06 10:16:00,
2015-07-06 03:21:00,59.0,52.2,29.57,NE,45,0.0,0.0,78,0.00,,---,0.00,VWS V13.01,2015-07-06 10:21:00,
2015-07-06 03:26:00,59.0,51.8,29.57,North,360,0.0,0.0,77,0.00,,---,0.00,VWS V13.01,2015-07-06 10:26:00,
2015-07-06 03:31:00,59.0,52.2,29.57,ESE,112,0.0,0.0,78,0.00,,---,0.00,VWS V13.01,2015-07-06 10:31:00,
2015-07-06 03:36:00,59.0,51.8,29.57,East,90,0.0,0.0,77,0.00,,---,0.00,VWS V13.01,2015-07-06 10:36:00,
2015-07-06 03:41:00,59.0,51.8,29.57,NNW,337,0.0,0.0,77,0.00,,---,0.00,VWS V13.01,2015-07-06 10:41:00,
2015-07-06 03:46:00,59.0,51.8,29.57,North,360,0.0,0.0,77,0.00,,---,0.00,VWS V13.01,2015-07-06 10:46:00,
2015-07-06 03:51:00,59.0,51.8,29.58,North,360,0.0,0.0,77,0.00,,---,0.00,VWS V13.01,2015-07-06 10:51:00,
2015-07-06 03:56:00,59.0,51.8,29.58,NNW,337,0.0,0.0,77,0.00,,---,0.00,VWS V13.01,2015-07-06 10:56:00,
2015-07-06 04:01:00,59.0,51.8,29.57,NNE,22,0.0,0.0,77,0.00,,---,0.00,VWS V13.01,2015-07-06 11:01:00,
2015-07-06 04:06:00,59.0,51.8,29.57,SE,135,0.0,0.0,77,0.00,,---,0.00,VWS V13.01,2015-07-06 11:06:00,
2015-07-06 04:11:00,59.0,51.8,29.58,NE,45,0.0,0.0,77,0.00,,---,0.00,VWS V13.01,2015-07-06 11:11:00,
2015-07-06 04:16:00,58.0,50.5,29.58,NNE,22,0.0,0.0,76,0.00,,---,0.00,VWS V13.01,2015-07-06 11:16:00,
2015-07-06 04:21:00,58.0,50.5,29.57,NNE,22,0.0,0.0,76,0.00,,---,0.00,VWS V13.01,2015-07-06 11:21:00,
2015-07-06 04:26:00,58.0,50.5,29.57,NNE,22,0.0,0.0,76,0.00,,---,0.00,VWS V13.01,2015-07-06 11:26:00,
2015-07-06 04:31:00,58.0,50.5,29.59,NNE,22,0.0,0.0,76,0.00,,---,0.00,VWS V13.01,2015-07-06 11:31:00,
2015-07-06 04:36:00,58.0,50.5,29.59,NNE,22,0.0,0.0,76,0.00,,---,0.00,VWS V13.01,2015-07-06 11:36:00,
2015-07-06 04:41:00,58.0,50.5,29.59,NNE,22,0.0,0.0,76,0.00,,---,0.00,VWS V13.01,2015-07-06 11:41:00,
2015-07-06 04:46:00,58.0,50.5,29.59,ENE,67,0.0,0.0,76,0.00,,---,0.00,VWS V13.01,2015-07-06 11:46:00,
2015-07-06 04:51:00,58.0,50.5,29.59,ENE,67,0.0,0.0,76,0.00,,---,0.00,VWS V13.01,2015-07-06 11:51:00,
2015-07-06 04:56:00,58.0,50.5,29.59,NE,45,0.0,0.0,76,0.00,,---,0.00,VWS V13.01,2015-07-06 11:56:00,
2015-07-06 05:01:00,58.0,50.5,29.59,NE,45,0.0,0.0,76,0.00,,---,0.00,VWS V13.01,2015-07-06 12:01:00,
2015-07-06 05:06:00,58.0,50.5,29.59,NE,45,0.0,0.0,76,0.00,,---,0.00,VWS V13.01,2015-07-06 12:06:00,
2015-07-06 05:11:00,58.0,50.5,29.60,North,360,0.0,0.0,76,0.00,,---,0.00,VWS V13.01,2015-07-06 12:11:00,
2015-07-06 05:16:00,58.0,50.5,29.60,North,360,0.0,0.0,76,0.00,,---,0.00,VWS V13.01,2015-07-06 12:16:00,
2015-07-06 05:21:00,58.0,50.5,29.59,North,360,0.0,0.0,76,0.00,,---,0.00,VWS V13.01,2015-07-06 12:21:00,
2015-07-06 05:26:00,58.0,50.5,29.59,SE,135,0.0,0.0,76,0.00,,---,0.00,VWS V13.01,2015-07-06 12:26:00,
2015-07-06 05:31:00,58.0,50.5,29.60,East,90,0.0,0.0,76,0.00,,---,0.00,VWS V13.01,2015-07-06 12:31:00,
2015-07-06 05:36:00,58.0,50.5,29.60,NE,45,0.0,0.0,76,0.00,,---,0.00,VWS V13.01,2015-07-06 12:36:00,
2015-07-06 05:41:00,58.0,50.5,29.60,South,180,0.0,0.0,76,0.00,,---,0.00,VWS V13.01,2015-07-06 12:41:00,
2015-07-06 05:46:00,58.0,50.5,29.60,SW,225,0.0,0.0,76,0.00,,---,0.00,VWS V13.01,2015-07-06 12:46:00,
2015-07-06 05:51:00,58.0,50.5,29.59,SSE,157,0.0,0.0,76,0.00,,---,0.00,VWS V13.01,2015-07-06 12:51:00,
2015-07-06 05:56:00,58.0,50.5,29.59,ESE,112,0.0,0.0,76,0.00,,---,0.00,VWS V13.01,2015-07-06 12:56:00,
2015-07-06 06:01:00,58.0,50.5,29.60,ESE,112,0.0,0.0,76,0.00,,---,0.00,VWS V13.01,2015-07-06 13:01:00,
2015-07-06 06:06:00,58.0,50.5,29.60,East,90,0.0,0.0,76,0.00,,---,0.00,VWS V13.01,2015-07-06 13:06:00,
2015-07-06 06:11:00,58.0,50.5,29.61,West,270,0.0,0.0,76,0.00,,---,0.00,VWS V13.01,2015-07-06 13:11:00,
2015-07-06 06:16:00,58.0,50.5,29.61,SSE,157,0.0,0.0,76,0.00,,---,0.00,VWS V13.01,2015-07-06 13:16:00,
2015-07-06 06:21:00,58.0,50.5,29.62,East,90,0.0,0.0,76,0.00,,---,0.00,VWS V13.01,2015-07-06 13:21:00,
2015-07-06 06:26:00,59.0,51.8,29.62,East,90,0.0,0.0,77,0.00,,---,0.00,VWS V13.01,2015-07-06 13:26:00,
2015-07-06 06:31:00,59.0,51.8,29.61,ENE,67,0.0,0.0,77,0.00,,---,0.00,VWS V13.01,2015-07-06 13:31:00,
2015-07-06 06:36:00,59.0,51.8,29.61,NE,45,0.0,0.0,77,0.00,,---,0.00,VWS V13.01,2015-07-06 13:36:00,
2015-07-06 06:41:00,59.0,51.8,29.61,NNW,337,0.0,0.0,77,0.00,,---,0.00,VWS V13.01,2015-07-06 13:41:00,
2015-07-06 06:46:00,59.0,51.8,29.61,WNW,292,0.0,0.0,77,0.00,,---,0.00,VWS V13.01,2015-07-06 13:46:00,
2015-07-06 06:51:00,59.0,51.8,29.63,North,360,0.0,0.0,77,0.00,,---,0.00,VWS V13.01,2015-07-06 13:51:00,
2015-07-06 06:56:00,59.0,51.8,29.63,SSE,157,0.0,0.0,77,0.00,,---,0.00,VWS V13.01,2015-07-06 13:56:00,
2015-07-06 07:01:00,59.0,51.8,29.61,NE,45,0.0,0.0,77,0.00,,---,0.00,VWS V13.01,2015-07-06 14:01:00,
2015-07-06 07:06:00,59.0,51.8,29.61,NNE,22,0.0,0.0,77,0.00,,---,0.00,VWS V13.01,2015-07-06 14:06:00,
2015-07-06 07:11:00,60.0,52.8,29.62,NW,315,0.0,0.0,77,0.00,,---,0.00,VWS V13.01,2015-07-06 14:11:00,
2015-07-06 07:16:00,60.0,52.8,29.62,ESE,112,0.0,0.0,77,0.00,,---,0.00,VWS V13.01,2015-07-06 14:16:00,
2015-07-06 07:21:00,60.0,53.1,29.64,North,360,0.0,0.0,78,0.00,,---,0.00,VWS V13.01,2015-07-06 14:21:00,
2015-07-06 07:26:00,60.0,52.8,29.64,North,360,0.0,0.0,77,0.00,,---,0.00,VWS V13.01,2015-07-06 14:26:00,
2015-07-06 07:31:00,60.0,53.1,29.62,NE,45,0.0,0.0,78,0.00,,---,0.00,VWS V13.01,2015-07-06 14:31:00,
2015-07-06 07:36:00,61.0,54.1,29.62,WSW,247,0.0,0.0,78,0.00,,---,0.00,VWS V13.01,2015-07-06 14:36:00,
2015-07-06 07:41:00,61.0,54.1,29.64,North,360,0.0,0.0,78,0.00,,---,0.00,VWS V13.01,2015-07-06 14:41:00,
2015-07-06 07:46:00,61.0,54.1,29.64,ESE,112,0.0,0.0,78,0.00,,---,0.00,VWS V13.01,2015-07-06 14:46:00,
2015-07-06 07:51:00,61.0,54.1,29.65,East,90,0.0,0.0,78,0.00,,---,0.00,VWS V13.01,2015-07-06 14:51:00,
2015-07-06 07:56:00,61.0,54.1,29.65,ESE,112,0.0,0.0,78,0.00,,---,0.00,VWS V13.01,2015-07-06 14:56:00,
2015-07-06 08:01:00,62.0,55.1,29.64,SE,135,0.0,0.0,78,0.00,,---,0.00,VWS V13.01,2015-07-06 15:01:00,
2015-07-06 08:06:00,62.0,55.1,29.64,South,180,0.0,0.0,78,0.00,,---,0.00,VWS V13.01,2015-07-06 15:06:00,
2015-07-06 08:11:00,62.0,55.1,29.63,NW,315,0.0,0.0,78,0.00,,---,0.00,VWS V13.01,2015-07-06 15:11:00,
2015-07-06 08:16:00,62.0,55.1,29.63,SSE,157,0.0,0.0,78,0.00,,---,0.00,VWS V13.01,2015-07-06 15:16:00,
2015-07-06 08:21:00,62.0,55.1,29.64,East,90,0.0,0.0,78,0.00,,---,0.00,VWS V13.01,2015-07-06 15:21:00,
2015-07-06 08:26:00,62.0,55.1,29.64,North,360,0.0,0.0,78,0.00,,---,0.00,VWS V13.01,2015-07-06 15:26:00,
2015-07-06 08:31:00,62.0,55.1,29.64,SE,135,0.0,0.0,78,0.00,,---,0.00,VWS V13.01,2015-07-06 15:31:00,
2015-07-06 08:36:00,62.0,55.1,29.64,ENE,67,0.0,0.0,78,0.00,,---,0.00,VWS V13.01,2015-07-06 15:36:00,
2015-07-06 08:41:00,63.0,56.0,29.64,North,360,0.0,0.0,78,0.00,,---,0.00,VWS V13.01,2015-07-06 15:41:00,
2015-07-06 08:46:00,64.0,57.4,29.64,East,90,0.0,0.0,79,0.00,,---,0.00,VWS V13.01,2015-07-06 15:46:00,
2015-07-06 08:51:00,65.0,58.3,29.64,SW,225,0.0,0.0,79,0.00,,---,0.00,VWS V13.01,2015-07-06 15:51:00,
2015-07-06 08:56:00,66.0,59.3,29.64,NW,315,0.0,0.0,79,0.00,,---,0.00,VWS V13.01,2015-07-06 15:56:00,
2015-07-06 09:01:00,67.0,60.3,29.63,SSW,202,0.0,0.0,79,0.00,,---,0.00,VWS V13.01,2015-07-06 16:01:00,